SL-14 DEB, 45272

Orbit data source: Space-Track

SL-14 DEB, 45272 is space debris in LEO originally from a launch on Thu, 15 Aug 1991 UTC launched from the Plesetsk Missile And Space Complex (PKMTR). Debris objects in space refer to the collection of defunct objects orbiting the Earth. Examples of debris include non-operational satellites, rocket bodies, and fragments generated from explosions, collisions, or faulty payload assembly.

Loading next visibility...
Identifier
45272, 1991-056J
Orbit
LEO
Country
Flag of CISCIS
Related business
Manufacturer
Unknown
Mission
Spacecraft
Bus & Motor
Unknown
Mass
Unknown
Launch date (UTC)
1991-08-15 (34 years ago)
Launch vehicle
Unknown
Launch site
Plesetsk Missile And Space Complex (PKMTR)
Object type
Payload
Rocket body
Debris
Shape & HBR
Unknown shape, 0.1 m
Radar Cross Section
Small (<0.1 m²)

Expand to show TLE details & history
Last TLE update: 2 days ago

TLE from 2 days ago
0 SL-14 DEB
1 45272U 91056J   25286.20678730  .00008240  00000-0  76680-2 0  9990
2 45272  82.6477 207.6352 0153585 219.0907 139.9073 13.76792370281936
Epoch: 2025-10-13T04:57Z
TLE epoch observation values (Epoch: 2025-10-13T04:57:46.422Z)
Latitude
-0.00012°
Longitude
111.17887°
Altitude
1,065.301 km
Speed
7.276 km/s
True Right ascension
13h 50m 32s
True Declination
0° 00' 00"
Sunlit
Object was in daylight at epoch
Visualization orbit readout
Latitude
Unknown
Longitude
Unknown
Altitude
Unknown
Speed
Unknown
Apparent Right ascension
Unknown
Apparent Declination
Unknown
Sunlit
N/A
Visualization observer readout
Local Sidereal Time
23:24:22
Azimuth
Unknown
Elevation
Unknown
Doppler factor
Unknown
Orbital elements
Apogee altitude
1,085.337 km
Perigee altitude
859.549 km
Semi-major axis
7,350.58 km
Eccentricity
0.01536
Inclination
82.6477°
RAAN
207.6352°
Arg. of periapsis
219.0907°
True anomaly
141.02427°
Mean anomaly
139.9073°
Eccentric anomaly
140.46742°
Mean motion
3.44398 °/min
Orbital period
104.53 mins
BSTAR
0.007668
Loading maneuver chart data...
Computing Atmospheric mass density...
Loading historical data...
Loading historical data...
Loading historical data...
Loading historical data...
Loading historical data...
Loading historical data...
Loading historical data...

Documentation

Showing up to 5 results
|